Skip Page Navigation
NASA JPL Caltech
NASA Logo - Jet Propulsion Laboratory + View the NASA Portal
+ Center for Near-Earth Object Studies
JPL Home Earth Solar System Stars & Galaxies Technology
JPL Solar System Dynamics
BODIES ORBITS EPHEMERIDES TOOLS PHYSICAL DATA DISCOVERY FAQ SITE MAP
IMPORTANT: The SSD Announcement email list is now available. Major changes are coming in the near future, including possible hostname and/or URL changes. To be notified of such changes, subscribe to this email list.

Please visit this page for more details.


JPL Small-Body Database Browser
Search: [ help ]  
212343 (2005 TV135)
Classification: Outer Main-belt Asteroid          SPK-ID: 2212343
Ephemeris | Orbit Diagram | Orbital Elements | Mission Design | Physical Parameters | Discovery Circumstances | Close-Approach Data ]

[ show orbit diagram ]
Orbital Elements at Epoch 2458600.5 (2019-Apr-27.0) TDB
Reference: JPL 14 (heliocentric ecliptic J2000)
 Element Value Uncertainty (1-sigma)   Units 
e .09685278617730909 5.1612e-08  
a 3.257981160081747 4.2984e-08 au
q 2.942436607414648 1.8609e-07 au
i 4.438986053384109 7.5174e-06 deg
node 28.79871956268873 7.426e-05 deg
peri 245.0479487831221 8.5091e-05 deg
M 192.2235442706339 3.8923e-05 deg
tp 2459601.536227053134
(2022-Jan-22.03622705)
0.0002312 TDB
period 2147.935717037869
5.88
4.2508e-05
1.164e-07
d
yr
n .167602781193313 3.3169e-09 deg/d
Q 3.573525712748846 4.7147e-08 au
  Orbit Determination Parameters
   # obs. used (total)      344  
   data-arc span      6615 days (18.11 yr)  
   first obs. used      2000-11-20  
   last obs. used      2018-12-31  
   planetary ephem.      DE431  
   SB-pert. ephem.      SB431-N16  
   condition code      0  
   norm. resid. RMS      .50358  
   source      ORB  
   producer      Otto Matic  
   solution date      2019-Jul-14 05:27:57  

Additional Information
 Earth MOID = 1.92946 au 
 Jupiter MOID = 1.53578 au 
 T_jup = 3.168 
[ show covariance matrix ]

Ephemeris | Orbit Diagram | Orbital Elements | Mission Design | Physical Parameters | Discovery Circumstances | Close-Approach Data ]

Physical Parameter Table
Parameter Symbol Value Units Sigma Reference Notes
absolute magnitude H 15.3   n/a MPO427250  
diameter diameter 5.781 km 0.490 urn:nasa:pds:neowise_diameters_albedos::2.0[mainbelt] (http://adsabs.harvard.edu/abs/2011ApJ...741...68M)  
geometric albedo albedo 0.044   0.006 urn:nasa:pds:neowise_diameters_albedos::2.0[mainbelt] (http://adsabs.harvard.edu/abs/2011ApJ...741...68M)  

212343 (2005 TV135)          Discovered 2005-Oct-06 by Spacewatch at Kitt Peak
Reference: 20090409/Numbers.arcLast Updated: 2009-04-10

[ show close-approach data ]
Ephemeris | Orbit Diagram | Orbital Elements | Mission Design | Physical Parameters | Discovery Circumstances | Close-Approach Data ]
ABOUT SSD CREDITS/AWARDS PRIVACY/COPYRIGHT GLOSSARY LINKS
FirstGov
(server date/time)  
NASA Home Page
Site Manager:   Ryan S. Park
Webmaster  Alan B. Chamberlin